EWG543 EDDK-EDDH

Flight info

Callsign EWG543
Flight time 0h 46m
Altitude 35000
Route PODIP1R/31R PODIP Y867 PELUN DCT ANZIV DCT WRB Y867 TOLGI DCT SAS/N0451F340 P605 NOLGO NOLGO3P
Aircraft A20N/M-SDE2E3FGHIRWXY/LB1

Departure

Time 2026-04-26 15:16
Airport Cologne Bonn Airport (EDDK)

Arrival

Time 2026-04-26 16:02
Airport Hamburg Helmut Schmidt Airport (EDDH)
Time Latitude Longitude Altitude Speed Heading
2026-04-26 14:54 50.88222 7.11857 236 ft 0 kts 216°
2026-04-26 15:03 50.88230 7.11866 236 ft 3 kts 216°
2026-04-26 15:03 50.88244 7.11883 236 ft 3 kts 216°
2026-04-26 15:03 50.88260 7.11898 234 ft 3 kts 172°
2026-04-26 15:04 50.88273 7.11884 236 ft 3 kts 116°
2026-04-26 15:04 50.88274 7.11882 236 ft 0 kts 116°
2026-04-26 15:07 50.88267 7.11903 236 ft 6 kts 120°
2026-04-26 15:08 50.88222 7.12007 234 ft 16 kts 126°
2026-04-26 15:08 50.88155 7.12150 233 ft 16 kts 126°
2026-04-26 15:08 50.88101 7.12300 235 ft 16 kts 103°
2026-04-26 15:08 50.88038 7.12442 235 ft 16 kts 137°
2026-04-26 15:09 50.87958 7.12560 234 ft 16 kts 137°
2026-04-26 15:09 50.87866 7.12610 233 ft 14 kts 177°
2026-04-26 15:09 50.87775 7.12684 236 ft 16 kts 135°
2026-04-26 15:09 50.87685 7.12821 236 ft 20 kts 136°
2026-04-26 15:10 50.87582 7.12970 233 ft 22 kts 137°
2026-04-26 15:10 50.87508 7.13078 235 ft 21 kts 137°
2026-04-26 15:10 50.87363 7.13288 236 ft 21 kts 138°
2026-04-26 15:10 50.87257 7.13441 239 ft 20 kts 136°
2026-04-26 15:11 50.87158 7.13584 242 ft 19 kts 137°
2026-04-26 15:11 50.87066 7.13719 245 ft 17 kts 137°
2026-04-26 15:11 50.86979 7.13844 246 ft 17 kts 137°
2026-04-26 15:11 50.86890 7.13972 247 ft 23 kts 138°
2026-04-26 15:12 50.86762 7.14129 254 ft 20 kts 172°
2026-04-26 15:12 50.86682 7.14212 259 ft 0 kts 137°
2026-04-26 15:13 50.86654 7.14253 260 ft 15 kts 137°
2026-04-26 15:13 50.86555 7.14396 261 ft 23 kts 138°
2026-04-26 15:13 50.86418 7.14591 266 ft 28 kts 135°
2026-04-26 15:14 50.86274 7.14804 271 ft 27 kts 137°
2026-04-26 15:14 50.86137 7.15004 275 ft 26 kts 137°
2026-04-26 15:14 50.86045 7.15223 277 ft 24 kts 84°
2026-04-26 15:14 50.86158 7.15355 276 ft 21 kts 352°
2026-04-26 15:15 50.86305 7.15307 274 ft 23 kts 346°
2026-04-26 15:15 50.86473 7.15182 270 ft 34 kts 323°
2026-04-26 15:15 50.86818 7.14693 260 ft 103 kts 317°
2026-04-26 15:15 50.87499 7.13701 263 ft 161 kts 317°
2026-04-26 15:16 50.88319 7.12495 857 ft 161 kts 316°
2026-04-26 15:16 50.89210 7.11422 1558 ft 162 kts 336°
2026-04-26 15:16 50.90413 7.11338 1978 ft 195 kts 15°
2026-04-26 15:16 50.91717 7.12298 2489 ft 216 kts 29°
2026-04-26 15:17 50.93046 7.13459 3324 ft 221 kts 30°
2026-04-26 15:17 50.93843 7.14479 3877 ft 226 kts 49°
2026-04-26 15:17 50.94901 7.17598 4705 ft 256 kts 66°
2026-04-26 15:17 50.95631 7.20248 5510 ft 270 kts 65°
2026-04-26 15:18 50.96430 7.22963 6575 ft 273 kts 64°
2026-04-26 15:18 50.97269 7.25716 7606 ft 278 kts 63°
2026-04-26 15:18 50.98130 7.28492 8595 ft 282 kts 63°
2026-04-26 15:18 50.98998 7.31268 9556 ft 286 kts 63°
2026-04-26 15:19 50.99896 7.34128 10443 ft 295 kts 63°
2026-04-26 15:19 51.00850 7.37165 10885 ft 320 kts 64°
2026-04-26 15:19 51.01640 7.40595 11288 ft 343 kts 79°
2026-04-26 15:19 51.01613 7.44453 11927 ft 356 kts 101°
2026-04-26 15:20 51.00971 7.48293 12762 ft 363 kts 107°
2026-04-26 15:20 51.00206 7.52151 13507 ft 367 kts 108°
2026-04-26 15:20 50.99424 7.56029 13900 ft 371 kts 108°
2026-04-26 15:20 50.98639 7.59947 14005 ft 372 kts 108°
2026-04-26 15:21 50.97857 7.63871 13998 ft 374 kts 108°
2026-04-26 15:21 50.97076 7.67811 13995 ft 374 kts 108°
2026-04-26 15:21 50.96294 7.71755 14004 ft 375 kts 107°
2026-04-26 15:21 50.95633 7.75780 14316 ft 379 kts 100°
2026-04-26 15:22 50.95414 7.79952 15193 ft 381 kts 89°
2026-04-26 15:22 50.95725 7.84069 16072 ft 384 kts 77°
2026-04-26 15:22 50.96601 7.88082 16888 ft 388 kts 65°
2026-04-26 15:22 50.97813 7.91928 17643 ft 392 kts 61°
2026-04-26 15:23 50.99172 7.95714 18396 ft 396 kts 59°
2026-04-26 15:23 51.00607 7.99493 19126 ft 401 kts 58°
2026-04-26 15:23 51.02067 8.03285 19816 ft 405 kts 58°
2026-04-26 15:23 51.03539 8.07133 20470 ft 409 kts 58°
2026-04-26 15:24 51.05011 8.11034 21108 ft 414 kts 59°
2026-04-26 15:24 51.06487 8.14998 21738 ft 418 kts 59°
2026-04-26 15:24 51.07964 8.19003 22347 ft 422 kts 59°
2026-04-26 15:24 51.09451 8.23061 22925 ft 426 kts 59°
2026-04-26 15:25 51.10923 8.27106 23477 ft 430 kts 59°
2026-04-26 15:25 51.11937 8.29902 23855 ft 432 kts 60°
2026-04-26 15:25 51.13934 8.35421 24572 ft 437 kts 60°
2026-04-26 15:25 51.15473 8.39618 25103 ft 440 kts 57°
2026-04-26 15:26 51.17313 8.43534 25607 ft 443 kts 47°
2026-04-26 15:26 51.19509 8.47022 26080 ft 447 kts 43°
2026-04-26 15:26 51.21838 8.50326 26531 ft 450 kts 40°
2026-04-26 15:26 51.24250 8.53532 26977 ft 453 kts 39°
2026-04-26 15:27 51.26717 8.56710 27402 ft 456 kts 38°
2026-04-26 15:27 51.29205 8.59887 27802 ft 459 kts 38°
2026-04-26 15:27 51.31712 8.63097 28211 ft 462 kts 38°
2026-04-26 15:27 51.34190 8.66292 28600 ft 464 kts 38°
2026-04-26 15:28 51.36703 8.69556 28990 ft 467 kts 39°
2026-04-26 15:28 51.39224 8.72849 29364 ft 469 kts 39°
2026-04-26 15:28 51.41755 8.76169 29812 ft 469 kts 39°
2026-04-26 15:28 51.44274 8.79483 30380 ft 467 kts 39°
2026-04-26 15:29 51.46785 8.82791 30882 ft 465 kts 39°
2026-04-26 15:29 51.49281 8.86086 31368 ft 465 kts 39°
2026-04-26 15:29 51.54267 8.92677 32263 ft 463 kts 39°
2026-04-26 15:30 51.59203 8.99220 33096 ft 461 kts 39°
2026-04-26 15:30 51.61683 9.02514 33498 ft 461 kts 39°
2026-04-26 15:30 51.64148 9.05793 33899 ft 459 kts 39°
2026-04-26 15:31 51.66609 9.09071 34282 ft 458 kts 39°
2026-04-26 15:31 51.71520 9.15628 34944 ft 459 kts 39°
2026-04-26 15:32 51.78054 9.24381 34998 ft 458 kts 39°
2026-04-26 15:32 51.83745 9.32033 35002 ft 458 kts 39°
2026-04-26 15:33 51.88647 9.38644 35007 ft 458 kts 39°
2026-04-26 15:33 51.92953 9.43584 34995 ft 457 kts 31°
2026-04-26 15:34 51.99365 9.49692 34996 ft 457 kts 29°
2026-04-26 15:34 52.03974 9.53878 34995 ft 456 kts 28°
2026-04-26 15:35 52.10447 9.59779 34993 ft 457 kts 29°
2026-04-26 15:35 52.15947 9.64850 34715 ft 456 kts 29°
2026-04-26 15:36 52.18707 9.67409 34471 ft 456 kts 29°
2026-04-26 15:36 52.21481 9.69986 34230 ft 457 kts 29°
2026-04-26 15:36 52.23307 9.71685 34056 ft 457 kts 29°
2026-04-26 15:36 52.27014 9.75140 33719 ft 458 kts 29°
2026-04-26 15:37 52.29781 9.77721 33473 ft 458 kts 29°
2026-04-26 15:37 52.31624 9.79443 33306 ft 458 kts 29°
2026-04-26 15:37 52.35289 9.82871 32975 ft 459 kts 29°
2026-04-26 15:37 52.38070 9.85476 32731 ft 460 kts 29°
2026-04-26 15:38 52.40839 9.88074 32263 ft 460 kts 29°
2026-04-26 15:38 52.43619 9.90686 31692 ft 461 kts 29°
2026-04-26 15:38 52.46409 9.93311 31120 ft 462 kts 29°
2026-04-26 15:38 52.49198 9.95939 30546 ft 463 kts 29°
2026-04-26 15:39 52.51987 9.98571 29976 ft 464 kts 29°
2026-04-26 15:39 52.54856 10.01005 29400 ft 464 kts 22°
2026-04-26 15:39 52.56872 10.02220 29019 ft 465 kts 18°
2026-04-26 15:39 52.58914 10.03290 28644 ft 465 kts 17°
2026-04-26 15:40 52.63078 10.05294 27876 ft 467 kts 15°
2026-04-26 15:40 52.67256 10.07170 27422 ft 470 kts 14°
2026-04-26 15:40 52.70417 10.08497 27170 ft 470 kts 11°
2026-04-26 15:40 52.73658 10.09297 26922 ft 469 kts
2026-04-26 15:41 52.75857 10.09649 26754 ft 470 kts
2026-04-26 15:41 52.80175 10.10217 26420 ft 470 kts
2026-04-26 15:41 52.82375 10.10486 26257 ft 471 kts
2026-04-26 15:41 52.86698 10.11002 25927 ft 469 kts
2026-04-26 15:42 52.88860 10.11257 25759 ft 468 kts
2026-04-26 15:42 52.93206 10.11769 25310 ft 466 kts
2026-04-26 15:42 52.95338 10.12020 24937 ft 464 kts
2026-04-26 15:42 52.99601 10.12521 24178 ft 460 kts
2026-04-26 15:43 53.02786 10.12896 23597 ft 455 kts
2026-04-26 15:43 53.05926 10.13054 23015 ft 448 kts 356°
2026-04-26 15:43 53.11911 10.11040 21868 ft 432 kts 344°
2026-04-26 15:44 53.13811 10.10174 21472 ft 422 kts 344°
2026-04-26 15:44 53.20162 10.07263 20166 ft 388 kts 344°
2026-04-26 15:44 53.21862 10.06484 19830 ft 379 kts 344°
2026-04-26 15:45 53.27584 10.03866 18650 ft 351 kts 344°
2026-04-26 15:45 53.29128 10.03160 18317 ft 345 kts 344°
2026-04-26 15:46 53.34382 10.00759 17135 ft 326 kts 344°
2026-04-26 15:46 53.36555 9.99766 16636 ft 321 kts 344°
2026-04-26 15:46 53.38705 9.98785 16142 ft 320 kts 344°
2026-04-26 15:47 53.42259 9.97160 15326 ft 321 kts 344°
2026-04-26 15:47 53.46559 9.95192 14318 ft 318 kts 344°
2026-04-26 15:47 53.48717 9.94573 13792 ft 312 kts
2026-04-26 15:48 53.50799 9.95366 13299 ft 306 kts 25°
2026-04-26 15:48 53.52935 9.98385 12633 ft 299 kts 51°
2026-04-26 15:48 53.53772 10.00225 12296 ft 296 kts 53°
2026-04-26 15:48 53.54967 10.03005 11797 ft 292 kts 54°
2026-04-26 15:49 53.56141 10.05770 11293 ft 288 kts 54°
2026-04-26 15:49 53.57296 10.08496 10796 ft 284 kts 54°
2026-04-26 15:49 53.58436 10.11189 10287 ft 281 kts 54°
2026-04-26 15:49 53.59563 10.13853 9785 ft 278 kts 54°
2026-04-26 15:50 53.60677 10.16489 9289 ft 275 kts 54°
2026-04-26 15:50 53.61781 10.19102 8788 ft 272 kts 54°
2026-04-26 15:50 53.62871 10.21685 8284 ft 269 kts 54°
2026-04-26 15:50 53.63951 10.24244 7779 ft 267 kts 54°
2026-04-26 15:51 53.65011 10.26759 7290 ft 264 kts 54°
2026-04-26 15:51 53.66071 10.29275 6780 ft 262 kts 54°
2026-04-26 15:51 53.67123 10.31775 6286 ft 260 kts 54°
2026-04-26 15:51 53.68168 10.34260 5786 ft 258 kts 54°
2026-04-26 15:52 53.69201 10.36720 5286 ft 257 kts 54°
2026-04-26 15:52 53.70236 10.39184 4794 ft 258 kts 54°
2026-04-26 15:52 53.71283 10.41677 4299 ft 262 kts 54°
2026-04-26 15:52 53.71985 10.43349 3980 ft 264 kts 54°
2026-04-26 15:53 53.73381 10.46675 3709 ft 252 kts 54°
2026-04-26 15:53 53.74366 10.49029 3689 ft 237 kts 54°
2026-04-26 15:53 53.75269 10.51189 3722 ft 217 kts 53°
2026-04-26 15:53 53.76359 10.52874 3699 ft 213 kts 24°
2026-04-26 15:54 53.77772 10.53224 3702 ft 209 kts 348°
2026-04-26 15:54 53.79026 10.52127 3697 ft 205 kts 313°
2026-04-26 15:54 53.79644 10.50004 3710 ft 203 kts 278°
2026-04-26 15:54 53.79657 10.47611 3699 ft 204 kts 266°
2026-04-26 15:55 53.79528 10.45215 3699 ft 205 kts 264°
2026-04-26 15:55 53.79382 10.42805 3700 ft 205 kts 264°
2026-04-26 15:55 53.79235 10.40407 3700 ft 205 kts 264°
2026-04-26 15:55 53.79090 10.38040 3699 ft 205 kts 264°
2026-04-26 15:56 53.78943 10.35639 3707 ft 205 kts 264°
2026-04-26 15:56 53.78795 10.33234 3700 ft 205 kts 264°
2026-04-26 15:56 53.78592 10.30850 3696 ft 205 kts 257°
2026-04-26 15:56 53.77954 10.28727 3710 ft 205 kts 229°
2026-04-26 15:57 53.76955 10.26995 3699 ft 205 kts 227°
2026-04-26 15:57 53.76002 10.25194 3698 ft 206 kts 230°
2026-04-26 15:57 53.75089 10.23326 3620 ft 205 kts 231°
2026-04-26 15:57 53.74492 10.22096 3451 ft 205 kts 231°
2026-04-26 15:58 53.73276 10.19622 3030 ft 202 kts 231°
2026-04-26 15:58 53.72408 10.17856 2743 ft 189 kts 231°
2026-04-26 15:58 53.71596 10.16204 2493 ft 176 kts 231°
2026-04-26 15:58 53.70861 10.14708 2263 ft 160 kts 231°
2026-04-26 15:59 53.70185 10.13332 2050 ft 145 kts 231°
2026-04-26 15:59 53.69573 10.12088 1864 ft 131 kts 231°
2026-04-26 15:59 53.69001 10.10924 1714 ft 127 kts 231°
2026-04-26 15:59 53.68435 10.09775 1536 ft 127 kts 231°
2026-04-26 16:00 53.67870 10.08626 1375 ft 127 kts 231°
2026-04-26 16:00 53.67307 10.07482 1206 ft 126 kts 231°
2026-04-26 16:00 53.66745 10.06341 1038 ft 126 kts 231°
2026-04-26 16:00 53.66192 10.05217 874 ft 126 kts 231°
2026-04-26 16:01 53.65634 10.04082 695 ft 126 kts 231°
2026-04-26 16:01 53.65075 10.02947 538 ft 125 kts 231°
2026-04-26 16:01 53.64514 10.01815 378 ft 126 kts 231°
2026-04-26 16:01 53.63952 10.00689 221 ft 125 kts 231°
2026-04-26 16:02 53.63399 9.99561 48 ft 120 kts 231°
2026-04-26 16:02 53.62962 9.98670 47 ft 66 kts 230°
2026-04-26 16:02 53.62802 9.98369 48 ft 7 kts 211°
2026-04-26 16:02 53.62789 9.98362 48 ft 9 kts 197°
2026-04-26 16:03 53.62711 9.98408 46 ft 0 kts 146°
2026-04-26 16:03 53.62703 9.98417 46 ft 2 kts 146°
2026-04-26 16:03 53.62695 9.98427 46 ft 4 kts 143°
2026-04-26 16:04 53.62667 9.98464 45 ft 8 kts 141°
2026-04-26 16:04 53.62621 9.98523 45 ft 8 kts 149°
2026-04-26 16:04 53.62567 9.98571 46 ft 9 kts 152°
2026-04-26 16:04 53.62518 9.98660 44 ft 13 kts 97°
2026-04-26 16:05 53.62531 9.98807 46 ft 13 kts 79°
2026-04-26 16:05 53.62547 9.98957 47 ft 13 kts 79°
2026-04-26 16:05 53.62564 9.99110 47 ft 14 kts 79°
2026-04-26 16:05 53.62588 9.99321 48 ft 21 kts 79°
2026-04-26 16:06 53.62618 9.99569 49 ft 22 kts 78°
2026-04-26 16:06 53.62633 9.99707 49 ft 0 kts 78°
2026-04-26 16:06 53.62647 9.99789 50 ft 13 kts 66°
2026-04-26 16:07 53.62724 9.99887 51 ft 15 kts 28°
2026-04-26 16:07 53.62817 9.99977 50 ft 16 kts 30°
2026-04-26 16:07 53.62857 10.00023 47 ft 7 kts 44°
2026-04-26 16:07 53.62915 10.00097 49 ft 12 kts 30°
2026-04-26 16:08 53.62940 10.00177 49 ft 7 kts 162°
2026-04-26 16:08 53.62910 10.00176 49 ft 6 kts 160°
2026-04-26 16:08 53.62893 10.00211 49 ft 0 kts 124°